• In Russia
  • List of Countries
  • For 7 days
  • Water Temperature
  • Satellite Maps
  • Weather Map
  • Weather Widgets
  • user-avatar
    Login

    Hourly Weather Solden

    Today, 28 February, Tuesday

    Time Temperature Precipitation Wind Pressure Humidity
    00:00 -7°C° 0 mm 2 mps 573 mmHg 93%
    01:00 -7°C° 0 mm 2 mps 573 mmHg 93%
    02:00 -7°C° 0.1 mm 2 mps 572 mmHg 93%
    03:00 -7°C° 0.1 mm 2 mps 572 mmHg 93%
    04:00 -6°C° 0.1 mm 2 mps 571 mmHg 93%
    05:00 -6°C° 0.3 mm 2 mps 571 mmHg 94%
    06:00 -6°C° 0.3 mm 2 mps 571 mmHg 94%
    07:00 -6°C° 0.3 mm 2 mps 571 mmHg 95%
    08:00 -5°C° 0.7 mm 2 mps 571 mmHg 94%
    09:00 -5°C° 0.7 mm 2 mps 571 mmHg 93%
    10:00 -4°C° 0.7 mm 2 mps 572 mmHg 93%
    11:00 -4°C° 1.3 mm 2 mps 571 mmHg 93%
    12:00 -5°C° 1.3 mm 3 mps 571 mmHg 93%
    13:00 -5°C° 1.3 mm 3 mps 570 mmHg 93%
    14:00 -5°C° 1.7 mm 3 mps 569 mmHg 94%
    15:00 -5°C° 1.7 mm 3 mps 569 mmHg 94%
    16:00 -4°C° 1.7 mm 2 mps 568 mmHg 95%
    17:00 -4°C° 1.3 mm 2 mps 568 mmHg 96%
    18:00 -5°C° 1.3 mm 2 mps 568 mmHg 96%
    19:00 -5°C° 1.3 mm 2 mps 567 mmHg 97%
    20:00 -6°C° 1.3 mm 2 mps 568 mmHg 97%
    21:00 -6°C° 1.3 mm 2 mps 568 mmHg 97%
    22:00 -6°C° 1.3 mm 2 mps 568 mmHg 98%
    23:00 -7°C° 1.4 mm 2 mps 568 mmHg 97%

    Tomorrow, 1 March, Wednesday

    Time Temperature Precipitation Wind Pressure Humidity
    00:00 -8°C° 1.4 mm 2 mps 568 mmHg 97%
    01:00 -8°C° 1.4 mm 2 mps 568 mmHg 96%
    02:00 -9°C° 0.6 mm 2 mps 568 mmHg 96%
    03:00 -10°C° 0.6 mm 2 mps 568 mmHg 95%
    04:00 -10°C° 0.6 mm 2 mps 568 mmHg 94%
    05:00 -12°C° 0 mm 2 mps 568 mmHg 93%
    06:00 -13°C° 0 mm 2 mps 568 mmHg 93%
    07:00 -13°C° 0 mm 2 mps 569 mmHg 93%
    08:00 -12°C° 0 mm 2 mps 570 mmHg 91%
    09:00 -9°C° 0 mm 2 mps 571 mmHg 89%
    10:00 -7°C° 0 mm 1 mps 572 mmHg 87%
    11:00 -6°C° 0 mm 1 mps 573 mmHg 85%
    12:00 -4°C° 0 mm 1 mps 574 mmHg 83%
    13:00 -5°C° 0 mm 2 mps 574 mmHg 82%
    14:00 -3°C° 0 mm 1 mps 574 mmHg 83%
    15:00 -4°C° 0 mm 1 mps 575 mmHg 85%
    16:00 -4°C° 0 mm 1 mps 575 mmHg 86%
    17:00 -8°C° 0 mm 1 mps 574 mmHg 88%
    18:00 -11°C° 0 mm 1 mps 572 mmHg 89%
    19:00 -14°C° 0 mm 1 mps 571 mmHg 91%
    20:00 -13°C° 0 mm 1 mps 572 mmHg 90%
    21:00 -14°C° 0 mm 2 mps 573 mmHg 88%
    22:00 -13°C° 0 mm 2 mps 574 mmHg 87%
    23:00 -13°C° 0 mm 2 mps 574 mmHg 88%

    Day after tomorrow, 2 March, Thursday

    Time Temperature Precipitation Wind Pressure Humidity
    00:00 -12°C° 0 mm 2 mps 574 mmHg 88%
    01:00 -12°C° 0 mm 2 mps 574 mmHg 89%
    02:00 -12°C° 0 mm 2 mps 574 mmHg 89%
    03:00 -12°C° 0 mm 2 mps 574 mmHg 89%
    04:00 -12°C° 0 mm 2 mps 574 mmHg 89%
    05:00 -12°C° 0 mm 2 mps 574 mmHg 88%
    06:00 -12°C° 0 mm 2 mps 574 mmHg 88%
    07:00 -10°C° 0 mm 2 mps 575 mmHg 88%
    08:00 -7°C° 0 mm 1 mps 576 mmHg 88%
    09:00 -4°C° 0 mm 1 mps 578 mmHg 88%
    10:00 -2°C° 0 mm 1 mps 579 mmHg 87%
    11:00 -1°C° 0.1 mm 1 mps 579 mmHg 88%
    12:00 0°C° 0.1 mm 1 mps 580 mmHg 88%
    13:00 0°C° 0.1 mm 1 mps 580 mmHg 89%
    14:00 0°C° 0.1 mm 1 mps 580 mmHg 90%
    15:00 0°C° 0.1 mm 1 mps 580 mmHg 91%
    16:00 0°C° 0.1 mm 1 mps 580 mmHg 92%
    17:00 -2°C° 0.1 mm 1 mps 579 mmHg 94%
    18:00 -6°C° 0.1 mm 1 mps 578 mmHg 96%
    19:00 -8°C° 0.1 mm 1 mps 577 mmHg 97%
    20:00 -8°C° 0 mm 1 mps 577 mmHg 97%
    21:00 -7°C° 0 mm 1 mps 577 mmHg 97%
    22:00 -7°C° 0 mm 1 mps 578 mmHg 97%
    23:00 -7°C° 0 mm 1 mps 578 mmHg 97%

    3 March, Friday

    Time Temperature Precipitation Wind Pressure Humidity
    00:00 -7°C° 0 mm 1 mps 578 mmHg 97%
    01:00 -8°C° 0 mm 2 mps 577 mmHg 97%
    02:00 -8°C° 0 mm 2 mps 577 mmHg 96%
    03:00 -8°C° 0 mm 2 mps 577 mmHg 96%
    04:00 -8°C° 0 mm 2 mps 577 mmHg 96%
    05:00 -8°C° 0 mm 2 mps 577 mmHg 96%
    06:00 -8°C° 0 mm 2 mps 577 mmHg 96%
    07:00 -7°C° 0 mm 2 mps 577 mmHg 96%
    08:00 -6°C° 0 mm 2 mps 577 mmHg 95%
    09:00 -5°C° 0 mm 2 mps 578 mmHg 93%
    10:00 -3°C° 0 mm 2 mps 578 mmHg 92%
    11:00 -3°C° 0.1 mm 2 mps 578 mmHg 92%
    12:00 -2°C° 0.1 mm 2 mps 578 mmHg 92%
    13:00 -2°C° 0.1 mm 2 mps 577 mmHg 92%
    14:00 -2°C° 0.1 mm 2 mps 577 mmHg 93%
    15:00 -2°C° 0.1 mm 2 mps 576 mmHg 94%
    16:00 -2°C° 0.1 mm 2 mps 576 mmHg 95%
    17:00 -3°C° 0.2 mm 2 mps 575 mmHg 95%
    18:00 -4°C° 0.2 mm 2 mps 575 mmHg 96%
    19:00 -4°C° 0.2 mm 2 mps 574 mmHg 97%
    20:00 -4°C° 0.4 mm 2 mps 574 mmHg 97%
    21:00 -5°C° 0.4 mm 3 mps 574 mmHg 97%
    22:00 -6°C° 0.4 mm 3 mps 573 mmHg 97%
    23:00 -6°C° 0.3 mm 3 mps 573 mmHg 97%

    4 March, Saturday

    Time Temperature Precipitation Wind Pressure Humidity
    00:00 -6°C° 0.3 mm 3 mps 573 mmHg 97%
    01:00 -6°C° 0.3 mm 3 mps 572 mmHg 97%
    02:00 -6°C° 0.6 mm 3 mps 572 mmHg 97%
    03:00 -6°C° 0.6 mm 3 mps 571 mmHg 97%
    04:00 -5°C° 0.6 mm 2 mps 571 mmHg 97%
    05:00 -5°C° 1.2 mm 2 mps 571 mmHg 97%
    06:00 -5°C° 1.2 mm 2 mps 571 mmHg 97%
    07:00 -5°C° 1.2 mm 2 mps 571 mmHg 97%
    08:00 -5°C° 0.9 mm 2 mps 572 mmHg 96%
    09:00 -4°C° 0.9 mm 2 mps 572 mmHg 96%
    10:00 -4°C° 0.9 mm 2 mps 572 mmHg 95%
    11:00 -3°C° 0.5 mm 2 mps 573 mmHg 94%
    12:00 -3°C° 0.5 mm 2 mps 573 mmHg 93%
    13:00 -3°C° 0.5 mm 2 mps 574 mmHg 91%
    14:00 -3°C° 0.2 mm 2 mps 574 mmHg 91%
    15:00 -3°C° 0.2 mm 2 mps 574 mmHg 92%
    16:00 -3°C° 0.2 mm 2 mps 574 mmHg 92%
    17:00 -4°C° 0.1 mm 2 mps 574 mmHg 93%
    18:00 -5°C° 0.1 mm 2 mps 574 mmHg 95%
    19:00 -6°C° 0.1 mm 2 mps 573 mmHg 97%
    20:00 -6°C° 0.2 mm 2 mps 574 mmHg 96%
    21:00 -6°C° 0.2 mm 2 mps 574 mmHg 96%
    22:00 -6°C° 0.2 mm 2 mps 574 mmHg 96%
    23:00 -6°C° 0.2 mm 2 mps 574 mmHg 96%

    5 March, Sunday

    Time Temperature Precipitation Wind Pressure Humidity
    00:00 -7°C° 0.2 mm 2 mps 574 mmHg 97%
    01:00 -6°C° 0.2 mm 1 mps 574 mmHg 97%
    02:00 -6°C° 0.2 mm 1 mps 574 mmHg 97%
    03:00 -6°C° 0.2 mm 1 mps 574 mmHg 96%
    04:00 -6°C° 0.2 mm 1 mps 574 mmHg 96%
    05:00 -6°C° 0.3 mm 1 mps 574 mmHg 96%
    06:00 -6°C° 0.3 mm 1 mps 574 mmHg 96%
    07:00 -6°C° 0.3 mm 1 mps 574 mmHg 96%
    08:00 -4°C° 1 mm 1 mps 574 mmHg 95%
    09:00 -3°C° 1 mm 1 mps 575 mmHg 94%
    10:00 -2°C° 1 mm 1 mps 575 mmHg 93%
    11:00 -2°C° 2 mm 1 mps 575 mmHg 93%
    12:00 -2°C° 2 mm 1 mps 575 mmHg 94%
    13:00 -2°C° 2 mm 1 mps 575 mmHg 94%
    14:00 -2°C° 2.1 mm 1 mps 575 mmHg 95%
    15:00 -2°C° 2.1 mm 1 mps 574 mmHg 95%
    16:00 -2°C° 2.1 mm 1 mps 574 mmHg 96%
    17:00 -4°C° 1.7 mm 2 mps 574 mmHg 96%
    18:00 -5°C° 1.7 mm 2 mps 574 mmHg 96%
    19:00 -5°C° 1.7 mm 2 mps 574 mmHg 96%
    20:00 -5°C° 0.9 mm 2 mps 574 mmHg 96%
    21:00 -5°C° 0.9 mm 2 mps 573 mmHg 96%
    22:00 -5°C° 0.9 mm 2 mps 573 mmHg 96%
    23:00 -5°C° 0.4 mm 2 mps 573 mmHg 96%
    Show more